Arctic Village, AK

5:54 PM AKDT on June 28, 2017 (GMT -0800)
Arctic Village

Weather History for PARC - July, 2013

Change the Weather History Date:

Tuesday, July 30, 2013

  Actual Average Record
Temperature  
Mean Temperature 58 °F -  
Max Temperature 71 °F 67 °F 78 °F (1989)
Min Temperature 44 °F 43 °F 33 °F (1993)
Degree Days  
Heating Degree Days 8    
Growing Degree Days 8 (Base 50)    
Moisture  
Dew Point 42 °F    
Average Humidity 54    
Maximum Humidity 81    
Minimum Humidity 35    
Precipitation  
Precipitation 0.00 in - - ()
Sea Level Pressure  
Sea Level Pressure 30.09 in    
Wind  
Wind Speed 5 mph (SW)    
Max Wind Speed 15 mph    
Max Gust Speed 23 mph    
Visibility 10 miles    
Events      
Averages and records for this station are not official NWS values.
T = Trace of Precipitation, MM = Missing Value Source: NWS Daily Summary

Daily Weather History Graph

Daily Weather History Graph

Search for Another Location

Airport or City:

Trip Planner

Search our weather history database for the weather conditions in past years. The results will help you decide how hot, cold, wet, or windy it might be!

Date:

Astronomy

Jul. 30, 2013 Rise Set
Actual Time 3:47 AM AKDT 11:45 PM AKDT
Civil Twilight Sun does not set Sun does not set
Nautical Twilight Sun does not set Sun does not set
Astronomical Twilight Sun does not set Sun does not set
Moon 11:04 PM AKDT (7/30) 5:59 PM AKDT (7/30)
Length of Visible Light 24h 00m
Length of Day
19h 58m
Last Quarter, 39% of the Moon is Illuminated
Jul 30
Last Quarter
Aug 6
New
Aug 14
First Quarter
Aug 20
Full
Aug 28
Last Quarter

Hourly Weather History & Observations

Time (AKDT) Temp. Dew Point Humidity Pressure Visibility Wind Dir Wind Speed Gust Speed Precip Events Conditions
12:16 AM 53.6 °F 39.2 °F 58% 30.09 in 10.0 mi SE 3.5 mph - N/A   Clear
12:36 AM 51.8 °F 39.2 °F 62% 30.09 in 10.0 mi WNW 8.1 mph - N/A   Clear
12:56 AM 48.2 °F 33.8 °F 58% 30.09 in 10.0 mi WNW 3.5 mph - N/A   Clear
1:16 AM 51.8 °F 33.8 °F 50% 30.10 in 10.0 mi NW 4.6 mph - N/A   Clear
1:36 AM 48.2 °F 35.6 °F 62% 30.10 in 10.0 mi South 3.5 mph - N/A   Clear
1:56 AM 48.2 °F 37.4 °F 66% 30.10 in 10.0 mi South 5.8 mph - N/A   Clear
2:16 AM 50.0 °F 37.4 °F 62% 30.11 in 10.0 mi WNW 4.6 mph - N/A   Clear
2:36 AM 48.2 °F 37.4 °F 66% 30.11 in 10.0 mi Calm Calm - N/A   Clear
2:56 AM 48.2 °F 35.6 °F 62% 30.11 in 10.0 mi South 3.5 mph - N/A   Clear
3:16 AM 46.4 °F 41.0 °F 81% 30.11 in 10.0 mi Calm Calm - N/A   Clear
3:36 AM 46.4 °F 39.2 °F 76% 30.11 in 10.0 mi Calm Calm - N/A   Clear
3:56 AM 46.4 °F 39.2 °F 76% 30.11 in 10.0 mi Calm Calm - N/A   Clear
4:16 AM 44.6 °F 33.8 °F 66% 30.11 in 10.0 mi Calm Calm - N/A   Clear
4:36 AM 44.6 °F 35.6 °F 71% 30.12 in 10.0 mi Calm Calm - N/A   Clear
4:56 AM 46.4 °F 37.4 °F 71% 30.12 in 10.0 mi Calm Calm - N/A   Clear
5:16 AM 44.6 °F 39.2 °F 81% 30.12 in 10.0 mi Calm Calm - N/A   Clear
5:36 AM 46.4 °F 39.2 °F 76% 30.12 in 10.0 mi Calm Calm - N/A   Clear
5:56 AM 44.6 °F 37.4 °F 76% 30.12 in 10.0 mi Calm Calm - N/A   Clear
6:16 AM 46.4 °F 39.2 °F 76% 30.12 in 10.0 mi Calm Calm - N/A   Clear
6:36 AM 46.4 °F 39.2 °F 76% 30.12 in 10.0 mi Calm Calm - N/A   Clear
6:56 AM 46.4 °F 37.4 °F 71% 30.12 in 10.0 mi Calm Calm - N/A   Clear
7:16 AM 48.2 °F 39.2 °F 71% 30.12 in 10.0 mi Calm Calm - N/A   Clear
7:36 AM 50.0 °F 37.4 °F 62% 30.12 in 10.0 mi Calm Calm - N/A   Clear
7:56 AM 51.8 °F 37.4 °F 58% 30.12 in 10.0 mi Calm Calm - N/A   Clear
8:16 AM 51.8 °F 37.4 °F 58% 30.12 in 10.0 mi Calm Calm - N/A   Clear
8:36 AM 53.6 °F 39.2 °F 58% 30.12 in 10.0 mi Calm Calm - N/A   Clear
8:56 AM 53.6 °F 39.2 °F 58% 30.12 in 10.0 mi SW 3.5 mph - N/A   Clear
9:16 AM 55.4 °F 39.2 °F 54% 30.12 in 10.0 mi Calm Calm - N/A   Clear
9:36 AM 55.4 °F 39.2 °F 54% 30.12 in 10.0 mi WSW 4.6 mph - N/A   Clear
9:56 AM 57.2 °F 39.2 °F 51% 30.12 in 10.0 mi WSW 5.8 mph - N/A   Clear
10:16 AM 57.2 °F 41.0 °F 55% 30.12 in 10.0 mi SW 4.6 mph - N/A   Clear
10:36 AM 59.0 °F 41.0 °F 51% 30.12 in 10.0 mi SW 6.9 mph - N/A   Clear
10:56 AM 60.8 °F 42.8 °F 52% 30.11 in 10.0 mi Calm Calm - N/A   Clear
11:16 AM 60.8 °F 41.0 °F 48% 30.11 in 10.0 mi South 5.8 mph - N/A   Clear
11:36 AM 62.6 °F 42.8 °F 48% 30.11 in 10.0 mi WSW 3.5 mph - N/A   Clear
11:56 AM 64.4 °F 41.0 °F 42% 30.11 in 10.0 mi SSW 6.9 mph - N/A   Clear
12:16 PM 64.4 °F 42.8 °F 45% 30.11 in 10.0 mi SW 6.9 mph - N/A   Clear
12:36 PM 64.4 °F 42.8 °F 45% 30.10 in 10.0 mi SSW 8.1 mph - N/A   Clear
12:56 PM 64.4 °F 42.8 °F 45% 30.10 in 10.0 mi SW 8.1 mph - N/A   Clear
1:16 PM 66.2 °F 42.8 °F 43% 30.10 in 10.0 mi South 10.4 mph - N/A   Clear
1:36 PM 66.2 °F 42.8 °F 43% 30.10 in 10.0 mi SSW 8.1 mph - N/A   Clear
1:56 PM 68.0 °F 42.8 °F 40% 30.09 in 10.0 mi SW 8.1 mph - N/A   Clear
2:16 PM 68.0 °F 42.8 °F 40% 30.09 in 10.0 mi SSW 9.2 mph 23.0 mph N/A   Clear
2:36 PM 69.8 °F 42.8 °F 38% 30.09 in 10.0 mi SSW 6.9 mph - N/A   Scattered Clouds
2:56 PM 69.8 °F 41.0 °F 35% 30.08 in 10.0 mi WSW 10.4 mph - N/A   Overcast
3:16 PM 69.8 °F 41.0 °F 35% 30.08 in 10.0 mi WSW 6.9 mph - N/A   Mostly Cloudy
3:36 PM 69.8 °F 41.0 °F 35% 30.08 in 10.0 mi WSW 9.2 mph 17.3 mph N/A   Mostly Cloudy
3:56 PM 69.8 °F 41.0 °F 35% 30.08 in 10.0 mi SW 9.2 mph - N/A   Mostly Cloudy
4:16 PM 69.8 °F 42.8 °F 38% 30.07 in 10.0 mi South 9.2 mph 16.1 mph N/A   Overcast
4:36 PM 71.6 °F 42.8 °F 35% 30.07 in 10.0 mi SSW 10.4 mph 17.3 mph N/A   Overcast
4:56 PM 69.8 °F 41.0 °F 35% 30.06 in 10.0 mi WSW 12.7 mph - N/A   Overcast
5:16 PM 69.8 °F 41.0 °F 35% 30.06 in 10.0 mi West 9.2 mph - N/A   Mostly Cloudy
5:36 PM 69.8 °F 42.8 °F 38% 30.06 in 10.0 mi SW 10.4 mph - N/A   Mostly Cloudy
5:56 PM 71.6 °F 42.8 °F 35% 30.05 in 10.0 mi SW 9.2 mph - N/A   Scattered Clouds
6:16 PM 69.8 °F 44.6 °F 40% 30.05 in 10.0 mi SSW 11.5 mph 19.6 mph N/A   Scattered Clouds
6:36 PM 68.0 °F 44.6 °F 43% 30.05 in 10.0 mi SW 9.2 mph 17.3 mph N/A   Overcast
6:56 PM 69.8 °F 46.4 °F 43% 30.05 in 10.0 mi SSW 12.7 mph 19.6 mph N/A   Mostly Cloudy
7:16 PM 69.8 °F 46.4 °F 43% 30.04 in 10.0 mi SW 15.0 mph 20.7 mph N/A   Mostly Cloudy
7:36 PM 69.8 °F 46.4 °F 43% 30.04 in 10.0 mi SSW 10.4 mph 18.4 mph N/A   Scattered Clouds
7:56 PM 69.8 °F 46.4 °F 43% 30.04 in 10.0 mi SW 12.7 mph 17.3 mph N/A   Mostly Cloudy
8:36 PM 68.0 °F 48.2 °F 49% 30.03 in 10.0 mi SW 13.8 mph - N/A   Clear
8:56 PM 68.0 °F 48.2 °F 49% 30.03 in 10.0 mi SW 11.5 mph 17.3 mph N/A   Clear
9:16 PM 66.2 °F 48.2 °F 52% 30.03 in 10.0 mi SSW 9.2 mph - N/A   Clear
9:36 PM 66.2 °F 50.0 °F 56% 30.03 in 10.0 mi SSW 9.2 mph - N/A   Clear
9:56 PM 66.2 °F 50.0 °F 56% 30.03 in 10.0 mi SSW 9.2 mph - N/A   Clear
10:16 PM 64.4 °F 50.0 °F 59% 30.03 in 10.0 mi SW 10.4 mph 16.1 mph N/A   Clear
10:56 PM 62.6 °F 50.0 °F 63% 30.04 in 10.0 mi WSW 11.5 mph - N/A   Clear
11:16 PM 62.6 °F 48.2 °F 59% 30.04 in 10.0 mi WSW 8.1 mph - N/A   Clear
11:36 PM 60.8 °F 48.2 °F 63% 30.04 in 10.0 mi SW 8.1 mph - N/A   Clear
11:56 PM 60.8 °F 48.2 °F 63% 30.04 in 10.0 mi West 9.2 mph - N/A   Mostly Cloudy